Weather Roundup
Issued by NWS Chicago, IL

Home | Current Version | Previous Version | Graphics & Text | Print | Product List | Glossary On
Versions: 1 2 3 4 5 6 7 8 9 10 11 12 13 14 15 16 17 18 19 20 21 22 23 24 25 26 27 28 29 30 31 32 33 34 35 36 37 38 39 40 41 42 43 44 45 46 47 48 49 50
000
NZUS59 KLOT 271358
HRRLOT

CHICAGO AREA WEATHER ROUNDUP
NATIONAL WEATHER SERVICE CHICAGO/ROMEOVILLE IL
900 AM CDT WED AUG 27 2014

NOTE: "FAIR" INDICATES FEW OR NO CLOUDS BELOW 12,000 FEET WITH NO
SIGNIFICANT WEATHER AND/OR OBSTRUCTIONS TO VISIBILITY.

* THESE STATIONS ARE NOT UNDER NWS QUALITY CONTROL. THEY ALSO MAY NOT
  REPORT WEATHER SUCH AS PRECIPITATION OR FOG.

ILZ005-006-012>014-019>023-271500-
NORTHEAST ILLINOIS

CITY           SKY/WX    TMP DP  RH WIND       PRES   REMARKS
OHARE          MOSUNNY   74  60  61 NE5       30.14S
MIDWAY         MOSUNNY   75  63  66 E10       30.14S
AURORA         PTSUNNY   72  63  73 NE7       30.15S
WAUKEGAN       SUNNY     69  61  75 VRB3      30.14S
DUPAGE AIRPORT SUNNY     72  63  73 E8        30.14S
WHEELING       MOSUNNY   73  64  73 VRB5      30.16S
NORTHERLY IS     N/A     72  63  73 NE8         N/A
$$

WIZ051-052-058>065-066-070>072-271500-
SOUTHEAST WISCONSIN

CITY           SKY/WX    TMP DP  RH WIND       PRES   REMARKS
MILWAUKEE      MOSUNNY   68  62  81 NE7       30.16R
KENOSHA*       SUNNY     70  62  76 NE7       30.16S
RACINE*        MOSUNNY   70  63  78 N7        30.17S
WAUKESHA       MOSUNNY   64  57  77 NE3       30.18R
$$

INZ001>003-010>013-019-020-271500-
NORTHWEST INDIANA

CITY           SKY/WX    TMP DP  RH WIND       PRES   REMARKS
GARY*          MOSUNNY   73  63  68 NE7       30.15S
MICHIGAN CITY* NOT AVBL
RENSSELAER*    NOT AVBL
VALPARAISO     SUNNY     71  61  70 NE8       30.15S
$$

LMZ740>746-271500-
SOUTHERN LAKE MICHIGAN

STATION/POSITION TIME  SKY/WX   TEMP WIND        PRES    VSBY
                                AIR  DIR/SP/G
                 (UTC)          (F)  (DEG/KT/KT) (MB)    (MI)
HARRISON CRIB    1300            70   30/  8/ 10   N/A
BURNHAM HARBOR   1300            72   80/  4/  7   N/A
CALUMET HARBOR   1300            72   20/  5/  7 1019.3F
BURNS HARBOR     NOT AVBL
MICHIGAN CITY    1300            69   30/  9/ 12   N/A
$$

ABBREVIATIONS USED IN REMARKS
   TC - TEMPERATURE IN CELSIUS
  WCI - WIND CHILL INDEX
   HX - HEAT INDEX
  VSB - VISIBILITY
$$



USA.gov is the U.S. government's official web portal to all federal, state and local government web resources and services.